Ask Your Question

Cerin's profile - karma

Cerin's karma change log

10 0 How do you use externally defined materials in a URDF.Xacro file? ( 2019-10-07 15:46:03 -0500 )

10 0 How to convert Image to PIL.Image ( 2019-05-30 01:14:40 -0500 )

10 0 Proper way to shutdown /rosout (roscore). ( 2019-04-19 00:49:00 -0500 )

10 0 ROS log file change of time-stamping format ( 2019-04-11 09:38:42 -0500 )

15 0 Unable to start robot state publisher due to missing library ( 2019-04-08 01:09:12 -0500 )

15 0 "True" parallelization in rospy with subscribers ( 2019-04-07 22:39:08 -0500 )

10 0 How to rebuild a specific package? ( 2019-01-16 14:23:47 -0500 )

10 0 How to include a library in CMakeLists ( 2018-12-24 12:23:55 -0500 )

10 0 How to enter compiler flags into CMakeLists ( 2018-10-19 08:23:04 -0500 )

10 0 How to profile message activity? ( 2018-10-19 01:06:23 -0500 )

15 0 Passing arguments to launch file from Python API ( 2018-10-11 19:42:06 -0500 )

10 0 Passing arguments to launch file from Python API ( 2018-10-10 10:21:22 -0500 )

10 0 Are camera calibration files resolution agnostic? ( 2018-09-30 00:05:04 -0500 )

10 0 How to pass a file path to rosrun? ( 2018-08-15 11:30:55 -0500 )

10 0 How to get the number of subscribers on a topic? ( 2018-08-07 01:15:09 -0500 )

0 -2 rosrun & node_name ( 2018-07-03 08:52:16 -0500 )

0 -10 Passing arguments to launch file from Python API ( 2018-06-19 16:47:00 -0500 )

10 0 Passing arguments to launch file from Python API ( 2018-06-19 16:26:57 -0500 )

10 0 Unable to install because of missing ninja ( 2018-06-19 12:05:17 -0500 )

10 0 How to specify a custom rostoolchain.cmake when compiling with catkin? ( 2018-06-05 19:56:21 -0500 )

10 0 Catkin_make not installing Python dependencies ( 2018-05-31 14:40:38 -0500 )

10 0 Converting Python tf code to C++ ( 2018-05-23 04:02:33 -0500 )

2 0 Rospy publish is unreliable ( 2018-05-19 20:33:06 -0500 )

0 10 How to get the number of subscribers on a topic? ( 2018-04-30 06:13:36 -0500 )

0 -2 How to get the number of subscribers on a topic? ( 2018-04-28 21:00:55 -0500 )

0 10 c++ ROS-friendly state machine or similar ( 2018-03-19 20:28:30 -0500 )

10 0 Passing arguments to launch file from Python API ( 2018-03-14 17:54:27 -0500 )

10 0 Passing arguments to launch file from Python API ( 2018-03-13 09:43:37 -0500 )

0 -2 Passing arguments to launch file from Python API ( 2018-03-13 09:20:08 -0500 )

0 -2 Parameters roslaunch from python script ( 2018-03-13 09:19:12 -0500 )

0 -2 How to list all topics/services that are known by the server with roscpp? ( 2018-03-13 08:50:08 -0500 )

0 -2 how to send empty message? ( 2018-03-12 11:37:13 -0500 )

0 -2 how to send empty message? ( 2018-03-12 11:36:58 -0500 )

0 -2 how to send empty message? ( 2018-03-12 11:36:46 -0500 )

10 0 "True" parallelization in rospy with subscribers ( 2018-03-09 13:12:56 -0500 )

0 -2 "The specified base path "/home/rui/catkin_ws" contains a package but "catkin_make" must be invoked in the root of workspace" how can I fix it? ( 2018-03-08 16:38:50 -0500 )

0 -2 How do I run unit tests for a catkin package? ( 2018-03-08 16:28:58 -0500 )

0 -2 Does Tox get along with catkin's setup.py? ( 2018-03-08 15:10:53 -0500 )

15 0 ROS log file change of time-stamping format ( 2018-03-02 15:49:34 -0500 )

10 0 ROS log file change of time-stamping format ( 2018-03-02 15:49:30 -0500 )

2 0 Where does the parameter server store data? ( 2018-02-02 09:19:23 -0500 )

2 0 No input with rosclean purge? ( 2018-02-01 12:22:44 -0500 )

0 -2 How to launch nodes with realtime priority ( 2018-01-18 11:27:57 -0500 )

2 0 How to shutdown all nodes ( 2018-01-14 12:37:23 -0500 )

0 -2 Publish multiarray Python msg ( 2018-01-06 20:04:06 -0500 )

0 -2 Proper way to shutdown /rosout (roscore). ( 2018-01-05 10:36:29 -0500 )

10 0 How to simplify massive numbers of log files ( 2018-01-02 12:07:36 -0500 )

10 0 Recommended 3D Slam package? ( 2017-12-11 08:52:23 -0500 )

10 0 Placement of magnetometer in relation to speakers ( 2017-11-28 15:52:33 -0500 )

10 0 How do you cancel an actionlib action? ( 2017-10-02 13:33:51 -0500 )

0 -2 How to link with ros ARM libraries when cross compiling? ( 2017-08-22 12:41:59 -0500 )

10 0 Rviz error skipping XML document ( 2017-08-22 06:02:50 -0500 )

10 0 How to install Kinetic on Ubuntu 14? ( 2017-06-15 12:23:52 -0500 )

2 0 No transform from [base_link] to [odom] ( 2017-06-05 10:47:07 -0500 )

0 -2 No transform from [base_link] to [/map] ( 2017-06-03 21:34:45 -0500 )

2 0 Is it necessary to broadcast both odometry and tf data? ( 2017-05-31 11:06:44 -0500 )

10 0 How to specify a custom rostoolchain.cmake when compiling with catkin? ( 2017-05-30 12:43:33 -0500 )

10 0 How to define system dependencies in a custom package? ( 2017-05-18 02:36:03 -0500 )

15 0 ROS to control servos in R/C-Car? ( 2017-04-20 17:37:17 -0500 )

15 0 Roslaunch blocking message publication ( 2017-04-20 15:12:06 -0500 )

10 0 What is the odometry frame in relation to? ( 2017-04-19 18:09:43 -0500 )

0 -2 Converting Python tf code to C++ ( 2017-04-03 14:18:03 -0500 )

0 -2 how to increase rosserial buffer size ( 2017-04-02 13:06:06 -0500 )

0 -2 rosserial_arduino can't send a sensor_msgs/Imu msg ( 2017-04-01 23:35:07 -0500 )

2 0 Best practice for creating new frame names? ( 2017-03-31 21:59:32 -0500 )

10 0 Best method for merging rotation data ( 2017-03-27 14:46:25 -0500 )

0 -2 high level planner package ( 2017-03-27 11:56:12 -0500 )

10 0 How to execute command inside launch file? ( 2017-03-27 02:12:56 -0500 )

2 0 How to execute command inside launch file? ( 2017-03-26 23:22:22 -0500 )

0 -2 Whats the best way to use ROS to control motors on a simple robot? ( 2017-03-26 14:30:34 -0500 )

2 0 How to publish Int16MultiArray from command line? ( 2017-03-26 14:10:21 -0500 )

10 0 How to launch nodes with realtime priority ( 2017-02-24 06:08:50 -0500 )

10 0 Recommended 3D Slam package? ( 2017-02-17 04:31:42 -0500 )

2 0 Detecting host timeout in rosserial_arduino ( 2017-02-13 08:25:26 -0500 )

2 0 How to name a rosserial_arduino node? ( 2017-02-12 14:12:11 -0500 )

2 0 How to publish a message from a rosserial_arduino subscriber ( 2017-02-12 14:11:17 -0500 )

0 -2 a question about Float64MultiArray ( 2017-02-11 14:20:09 -0500 )

0 -2 How to initialize a UInt8MultiArray message ( 2017-02-11 01:18:34 -0500 )

0 -2 How to initialize a UInt8MultiArray message ( 2017-02-11 01:18:15 -0500 )

0 -2 a question about Float64MultiArray ( 2017-02-11 01:13:17 -0500 )

0 -2 rosserial_arduino: trouble with too much messaging? ( 2017-02-05 23:39:37 -0500 )

0 -2 how to list all the nodes of a package? ( 2017-02-05 21:49:06 -0500 )

2 0 Polling overall diagnostics state ( 2017-01-14 22:39:35 -0500 )

2 0 How to run a node with realtime priority ( 2017-01-08 12:37:26 -0500 )

10 0 Kinetic ROS package repository for Raspbian? ( 2017-01-01 09:02:58 -0500 )

2 0 Unable to see Rviz movement from odometry ( 2016-12-24 23:14:59 -0500 )

2 0 Unable to see Rviz movement from odometry ( 2016-12-24 23:12:57 -0500 )

2 0 How do I reset the /odom topic back to 0 without restarting the robot? ( 2016-12-24 22:18:01 -0500 )

0 -2 How do I reset the /odom topic back to 0 without restarting the robot? ( 2016-12-24 22:17:42 -0500 )

0 -2 Unable to see Rviz movement from odometry ( 2016-12-24 19:43:43 -0500 )

0 -2 No transform from [base_link] to [/map] ( 2016-12-24 18:54:45 -0500 )

0 -2 base_link to base_footprint transform ? ( 2016-12-24 11:10:31 -0500 )

2 0 quaternions with python ( 2016-12-11 15:52:26 -0500 )

0 -2 quaternions with python ( 2016-12-11 15:45:52 -0500 )

0 -2 quaternions with python ( 2016-12-11 15:45:39 -0500 )

0 -2 Generate odometry from encoders, cmd_vel, differential velocity ( 2016-12-11 12:00:49 -0500 )

0 -2 Calling launch file from node during runtime ( 2016-12-10 17:26:05 -0500 )

10 0 How to install and launch Python node inside a virtualenv? ( 2016-11-09 16:46:23 -0500 )

2 0 What units does the IMU message use? ( 2016-10-24 21:24:06 -0500 )

2 0 How to visualize IMU data in Rviz ( 2016-10-24 11:34:33 -0500 )